sat.trackr.live / text

‹ back to catalog

STARLINK-34030

NORAD 64030 · 2025-102J

PAYLOAD ACTIVE UNKNOWN

§ Identity

Operator
Country
US
Launch date
2025-05-16
Launch site
AFWTR
Launch vehicle
Mass (kg)
RCS (m²)

Purposes: comms

External: N2YO · Heavens-Above · Gunter

§ Orbital elements

Epoch: 2026-09-20T14:12:18.627264Z

Period
94.14 min
Inclination
70.0009°
Eccentricity
0.0004136
Mean motion
15.29612617 rev/d
Perigee alt
474.1 km
Apogee alt
479.8 km
Semi-major
6,855.1 km
B*
4.1010e-4
RAAN
340.7654°
Arg perigee
273.0640°
Mean anomaly
87.0061°
Rev number
7,521

§ Raw data

STARLINK-340301 64030U 25102J   26263.59188226  .00011692  00000+0  41010-3 0  99902 64030  70.0009 340.7654 0004136 273.0640  87.0061 15.29612617 75213

JSON: /api/v1/satellites/64030 · /tle

For live sub-satellite position, see the globe view (requires WebGL).

§ Visibility from observer

Set your observer location to see the next 7 days of passes ≥ 10°. The values pass through the URL so the page stays shareable.

No JS? Fill the form by hand. The geolocation button needs JavaScript.